User: anonymous   Login
Location: Unspecified
(0.0000°N, 0.0000°E)
Time: 13:35:26
(UTC+01:00)
Language:

BREEZE-M DEB (TANK) - Orbit

View from above orbital plane
View from above orbital plane
View from above satellite
View from above satellite

Ground track
Ground track

The orbit data is extracted from the following two-line orbital elements,

1 33374U 08044B   17055.20090443  .00002344  00000-0  69651-3 0  9999
2 33374  49.5069   3.2195 5444145  16.6100 355.7848  4.86749982148501
Epoch (UTC): 24 February 2017 04:49:18
Eccentricity: 0.5444145
inclination: 49.5069°
perigee height: 322 km
apogee height: 16336 km
right ascension of ascending node: 3.2195°
argument of perigee: 16.6100°
revolutions per day: 4.86749982
mean anomaly at epoch: 355.7848°
orbit number at epoch: 14850

The dashed part of the orbit path shows where the satellite is in the earth's shadow,  

DLR